Location: Izdebno
(52.6670°N, 16.2170°E)
Time: 17:14:18
(UTC+02:00)

SR - Pass Details

Date: 28 February 2024
Orbit: 577 x 862 km, 66.7° (Epoch: 21 April)

Event Time Altitude Azimuth Distance (km) Brightness Sun altitude
Rises 18:35:30 0° 295° (WNW) 3,388 ? -10.5°
Reaches altitude 10° 18:38:50 10° 313° (NW) 2,411 ? -11.0°
Maximum altitude 18:42:36 18° 356° (N) 1,845 ? -11.6°
Drops below altitude 10° 18:46:12 10° 40° (NE) 2,288 ? -12.1°
Enters shadow 18:47:13 - 48° (NE) 2,543 ? -12.3°
Sets 18:49:15 0° 59° (ENE) 3,151 - -12.6°
